Weather History for KSPD - October, 2013

Change the Weather History Date:

Monday, October 28, 2013

  Actual Average Record
Temperature  
Mean Temperature 51 °F -  
Max Temperature 67 °F 65 °F 87 °F (2001)
Min Temperature 35 °F 34 °F 23 °F (2010)
Degree Days  
Heating Degree Days 14 16  
Month to date heating degree days 349 305  
Since 1 July heating degree days 377 395  
Cooling Degree Days 0 0  
Month to date cooling degree days 2 9  
Year to date cooling degree days 1358 1026  
Growing Degree Days 1 (Base 50)    
Moisture  
Dew Point 32 °F    
Average Humidity 56    
Maximum Humidity 82    
Minimum Humidity 29    
Precipitation  
Precipitation 0.00 in 0.04 in 0.85 in (2000)
Month to date precipitation 0.21 1.26  
Year to date precipitation 13.45 16.33  
Sea Level Pressure  
Sea Level Pressure 29.82 in    
Wind  
Wind Speed 10 mph (NNW)    
Max Wind Speed 21 mph    
Max Gust Speed 25 mph    
T = Trace of Precipitation, MM = Missing Value Source: NWS Daily Summary

Daily Weather History Graph

Daily Weather History Graph

Search for Another Location

Airport or City:

Trip Planner

Search our weather history database for the weather conditions in past years. The results will help you decide how hot, cold, wet, or windy it might be!

Date:

Astronomy

Oct. 28, 2013 Rise Set
Actual Time 7:11 AM MDT 5:56 PM MDT
Civil Twilight 6:44 AM MDT 6:23 PM MDT
Nautical Twilight 6:13 AM MDT 6:54 PM MDT
Astronomical Twilight 5:43 AM MDT 7:24 PM MDT
Moon 1:13 AM MDT (10/28) 2:32 PM MDT (10/28)
Length of Visible Light 11h 39m
Length of Day
10h 45m
Waning Crescent, 33% of the Moon is Illuminated
Oct 28
Waning Crescent
Nov 3
New
Nov 9
First Quarter
Nov 17
Full
Nov 25
Last Quarter

Hourly Weather History & Observations

Time (MDT) Temp. Windchill Dew Point Humidity Pressure Visibility Wind Dir Wind Speed Gust Speed Precip Events Conditions
12:56 AM 48.0 °F - 35.1 °F 61% 29.71 in - SW 9.2 mph - N/A   Unknown
1:56 AM 46.0 °F 43.1 °F 33.1 °F 61% 29.72 in - SW 5.8 mph - N/A   Unknown
2:56 AM 48.9 °F - 30.9 °F 50% 29.71 in - WSW 9.2 mph - N/A   Unknown
3:56 AM 46.9 °F - 30.9 °F 54% 29.72 in - SW 10.4 mph - N/A   Unknown
4:56 AM 46.0 °F - 30.0 °F 54% 29.74 in - Calm Calm - N/A   Unknown
5:56 AM 45.0 °F 43.5 °F 28.9 °F 53% 29.77 in - Variable 3.5 mph - N/A   Unknown
6:56 AM 42.1 °F - 28.0 °F 58% 29.80 in - Calm Calm - N/A   Unknown
7:56 AM 48.0 °F - 30.0 °F 50% 29.80 in - West 4.6 mph - N/A   Unknown
8:56 AM 53.1 °F - 32.0 °F 45% 29.81 in - SW 6.9 mph - N/A   Unknown
9:56 AM 57.0 °F - 33.1 °F 40% 29.81 in - Calm Calm - N/A   Unknown
10:56 AM 64.0 °F - 35.1 °F 34% 29.81 in - Calm Calm - N/A   Unknown
11:56 AM 66.0 °F - 34.0 °F 30% 29.81 in - East 9.2 mph - N/A   Unknown
12:56 PM 63.0 °F - 30.9 °F 30% 29.81 in - NE 11.5 mph - N/A   Unknown
1:56 PM 61.0 °F - 32.0 °F 34% 29.79 in - NNE 11.5 mph - N/A   Unknown
2:56 PM 60.1 °F - 33.1 °F 36% 29.79 in - NNE 15.0 mph - N/A   Unknown
3:56 PM 60.1 °F - 35.1 °F 39% 29.80 in - NE 15.0 mph - N/A   Unknown
4:56 PM 57.9 °F - 36.0 °F 44% 29.81 in - NE 16.1 mph - N/A   Unknown
5:56 PM 52.0 °F - 36.0 °F 54% 29.86 in - NNE 13.8 mph - N/A   Unknown
6:56 PM 46.9 °F - 35.1 °F 63% 29.92 in - North 16.1 mph 23.0 mph N/A   Unknown
7:56 PM 39.9 °F 31.8 °F 30.9 °F 70% 29.97 in - North 15.0 mph - N/A   Unknown
8:56 PM 36.0 °F 27.5 °F 30.0 °F 79% 29.97 in - NNW 12.7 mph - N/A   Unknown
9:56 PM 36.0 °F 26.3 °F 30.9 °F 82% 29.96 in - NNW 16.1 mph 21.9 mph N/A   Unknown
10:56 PM 37.0 °F 28.1 °F 30.9 °F 79% 29.94 in - NNW 15.0 mph 21.9 mph N/A   Unknown
11:56 PM 37.0 °F 28.5 °F 32.0 °F 82% 29.92 in - NNW 13.8 mph 19.6 mph N/A   Unknown